When you browse on this site, cookies collect data to enhance your experience and personalize the content and advertising you see.
Visit our Privacy Policy to learn more. By continuing to use the site, you agree to this use of cookies and data.
  • En España
  • Lista de países
  • Para 7 días
  • Temperatura del agua
  • Mapa Satelital
  • El tiempo en el mapa
  • Informadores
  • user-avatar
    Iniciar sesión

    Tiempo cada hora Gerchiki

    Hoy, 15 Julio, Lunes

    Tiempo Temperatura Precipitaciones Viento Presión Humedad
    00:00 +13°C° 0.1 mm 2 mps 738 mmHg 90%
    01:00 +13°C° 0.1 mm 1 mps 738 mmHg 89%
    02:00 +12°C° 0 mm 1 mps 738 mmHg 88%
    03:00 +13°C° 0 mm 1 mps 738 mmHg 89%
    04:00 +13°C° 0 mm 1 mps 738 mmHg 89%
    05:00 +12°C° 0 mm 0 mps 738 mmHg 89%
    06:00 +14°C° 0 mm 1 mps 738 mmHg 87%
    07:00 +15°C° 0 mm 1 mps 738 mmHg 85%
    08:00 +16°C° 0 mm 1 mps 739 mmHg 82%
    09:00 +16°C° 0.2 mm 1 mps 738 mmHg 80%
    10:00 +17°C° 0.2 mm 2 mps 738 mmHg 79%
    11:00 +17°C° 0.2 mm 2 mps 738 mmHg 77%
    12:00 +18°C° 0.2 mm 2 mps 738 mmHg 75%
    13:00 +19°C° 0.2 mm 2 mps 738 mmHg 72%
    14:00 +20°C° 0 mm 2 mps 738 mmHg 67%
    15:00 +20°C° 0.2 mm 2 mps 738 mmHg 68%
    16:00 +20°C° 0.2 mm 2 mps 738 mmHg 69%
    17:00 +20°C° 0.2 mm 2 mps 738 mmHg 70%
    18:00 +18°C° 0 mm 2 mps 738 mmHg 75%
    19:00 +16°C° 0 mm 2 mps 738 mmHg 81%
    20:00 +15°C° 0 mm 2 mps 738 mmHg 87%
    21:00 +14°C° 0 mm 2 mps 738 mmHg 89%
    22:00 +14°C° 0 mm 2 mps 738 mmHg 91%
    23:00 +13°C° 0 mm 2 mps 738 mmHg 93%

    Mañana, 16 Julio, Martes

    Tiempo Temperatura Precipitaciones Viento Presión Humedad
    00:00 +12°C° 0 mm 2 mps 738 mmHg 94%
    01:00 +12°C° 0 mm 2 mps 738 mmHg 94%
    02:00 +12°C° 0 mm 2 mps 738 mmHg 95%
    03:00 +12°C° 0 mm 2 mps 738 mmHg 96%
    04:00 +12°C° 0 mm 2 mps 737 mmHg 96%
    05:00 +12°C° 0 mm 2 mps 737 mmHg 97%
    06:00 +13°C° 0 mm 2 mps 737 mmHg 94%
    07:00 +15°C° 0 mm 2 mps 737 mmHg 91%
    08:00 +16°C° 0 mm 2 mps 738 mmHg 88%
    09:00 +18°C° 0.1 mm 1 mps 737 mmHg 85%
    10:00 +19°C° 0.1 mm 1 mps 737 mmHg 82%
    11:00 +20°C° 0.1 mm 1 mps 737 mmHg 79%
    12:00 +20°C° 0.3 mm 1 mps 737 mmHg 76%
    13:00 +21°C° 0.3 mm 1 mps 736 mmHg 73%
    14:00 +20°C° 0.3 mm 0 mps 736 mmHg 71%
    15:00 +22°C° 0.4 mm 1 mps 736 mmHg 71%
    16:00 +22°C° 0.4 mm 1 mps 736 mmHg 70%
    17:00 +22°C° 0.4 mm 1 mps 735 mmHg 70%
    18:00 +20°C° 0.2 mm 1 mps 735 mmHg 77%
    19:00 +18°C° 0.2 mm 1 mps 735 mmHg 83%
    20:00 +16°C° 0.2 mm 1 mps 735 mmHg 89%
    21:00 +15°C° 0.1 mm 1 mps 735 mmHg 90%
    22:00 +15°C° 0.1 mm 1 mps 735 mmHg 91%
    23:00 +14°C° 0.1 mm 1 mps 735 mmHg 92%

    Pasado mañana, 17 Julio, Miércoles

    Tiempo Temperatura Precipitaciones Viento Presión Humedad
    00:00 +14°C° 0.1 mm 1 mps 734 mmHg 92%
    01:00 +14°C° 0.1 mm 1 mps 734 mmHg 92%
    02:00 +13°C° 0.1 mm 1 mps 734 mmHg 92%
    03:00 +14°C° 0.5 mm 1 mps 734 mmHg 93%
    04:00 +14°C° 0.5 mm 1 mps 734 mmHg 94%
    05:00 +14°C° 0.5 mm 2 mps 734 mmHg 94%
    06:00 +14°C° 0.4 mm 1 mps 734 mmHg 94%
    07:00 +15°C° 0.4 mm 1 mps 734 mmHg 94%
    08:00 +15°C° 0.4 mm 1 mps 734 mmHg 94%
    09:00 +16°C° 0.4 mm 1 mps 733 mmHg 90%
    10:00 +17°C° 0.4 mm 2 mps 733 mmHg 87%
    11:00 +17°C° 0.4 mm 2 mps 733 mmHg 83%
    12:00 +18°C° 0.6 mm 2 mps 733 mmHg 81%
    13:00 +18°C° 0.6 mm 2 mps 733 mmHg 79%
    14:00 +19°C° 0.6 mm 2 mps 733 mmHg 77%
    15:00 +19°C° 0.8 mm 2 mps 733 mmHg 78%
    16:00 +19°C° 0.8 mm 2 mps 733 mmHg 79%
    17:00 +19°C° 0.8 mm 1 mps 732 mmHg 80%
    18:00 +18°C° 0.3 mm 1 mps 732 mmHg 85%
    19:00 +16°C° 0.3 mm 1 mps 732 mmHg 88%
    20:00 +15°C° 0.3 mm 1 mps 732 mmHg 91%
    21:00 +14°C° 0 mm 1 mps 732 mmHg 92%
    22:00 +13°C° 0 mm 1 mps 732 mmHg 92%
    23:00 +13°C° 0 mm 1 mps 732 mmHg 93%

    18 Julio, Jueves

    Tiempo Temperatura Precipitaciones Viento Presión Humedad
    00:00 +12°C° 0 mm 2 mps 732 mmHg 94%
    01:00 +12°C° 0 mm 2 mps 732 mmHg 94%
    02:00 +12°C° 0 mm 2 mps 732 mmHg 95%
    03:00 +12°C° 0 mm 2 mps 732 mmHg 95%
    04:00 +12°C° 0 mm 2 mps 732 mmHg 96%
    05:00 +10°C° 0 mm 2 mps 732 mmHg 96%
    06:00 +13°C° 0 mm 2 mps 732 mmHg 94%
    07:00 +13°C° 0 mm 3 mps 732 mmHg 92%
    08:00 +16°C° 0 mm 3 mps 732 mmHg 90%
    09:00 +16°C° 0.3 mm 3 mps 732 mmHg 87%
    10:00 +17°C° 0.3 mm 3 mps 732 mmHg 84%
    11:00 +18°C° 0.3 mm 4 mps 732 mmHg 82%
    12:00 +18°C° 1.1 mm 4 mps 732 mmHg 82%
    13:00 +18°C° 1.1 mm 4 mps 732 mmHg 83%
    14:00 +17°C° 1.1 mm 5 mps 732 mmHg 84%
    15:00 +17°C° 0.5 mm 4 mps 732 mmHg 86%
    16:00 +17°C° 0.5 mm 4 mps 732 mmHg 88%
    17:00 +15°C° 0.5 mm 4 mps 732 mmHg 90%
    18:00 +14°C° 0.1 mm 3 mps 732 mmHg 92%
    19:00 +14°C° 0.1 mm 2 mps 732 mmHg 95%
    20:00 +14°C° 0.1 mm 2 mps 732 mmHg 97%
    21:00 +13°C° 0.1 mm 2 mps 732 mmHg 97%
    22:00 +13°C° 0.1 mm 1 mps 733 mmHg 97%
    23:00 +13°C° 0.1 mm 1 mps 733 mmHg 98%

    19 Julio, Viernes

    Tiempo Temperatura Precipitaciones Viento Presión Humedad
    00:00 +13°C° 0.1 mm 1 mps 733 mmHg 98%
    01:00 +13°C° 0.1 mm 1 mps 733 mmHg 98%
    02:00 +13°C° 0.1 mm 1 mps 733 mmHg 98%
    03:00 +13°C° 0 mm 2 mps 733 mmHg 98%
    04:00 +13°C° 0 mm 2 mps 733 mmHg 97%
    05:00 +14°C° 0 mm 2 mps 733 mmHg 97%
    06:00 +14°C° 0.1 mm 2 mps 734 mmHg 95%
    07:00 +14°C° 0.1 mm 3 mps 734 mmHg 94%
    08:00 +16°C° 0.1 mm 3 mps 734 mmHg 92%
    09:00 +17°C° 1 mm 4 mps 734 mmHg 91%
    10:00 +17°C° 1 mm 4 mps 735 mmHg 90%
    11:00 +17°C° 1 mm 5 mps 735 mmHg 89%
    12:00 +15°C° 0.6 mm 5 mps 735 mmHg 91%
    13:00 +14°C° 0.6 mm 5 mps 735 mmHg 93%
    14:00 +13°C° 0.6 mm 5 mps 736 mmHg 95%
    15:00 +13°C° 0.1 mm 5 mps 736 mmHg 95%
    16:00 +13°C° 0.1 mm 5 mps 736 mmHg 96%
    17:00 +13°C° 0.1 mm 5 mps 737 mmHg 96%
    18:00 +13°C° 0 mm 5 mps 737 mmHg 96%
    19:00 +14°C° 0 mm 5 mps 737 mmHg 96%
    20:00 +14°C° 0 mm 5 mps 737 mmHg 96%
    21:00 +14°C° 0 mm 4 mps 738 mmHg 96%
    22:00 +14°C° 0 mm 4 mps 738 mmHg 96%
    23:00 +14°C° 0 mm 4 mps 739 mmHg 96%

    20 Julio, Sábado

    Tiempo Temperatura Precipitaciones Viento Presión Humedad
    00:00 +14°C° 0 mm 4 mps 739 mmHg 96%
    01:00 +14°C° 0 mm 4 mps 739 mmHg 97%
    02:00 +13°C° 0 mm 4 mps 739 mmHg 97%
    03:00 +13°C° 0 mm 4 mps 740 mmHg 97%
    04:00 +13°C° 0 mm 4 mps 740 mmHg 97%
    05:00 +14°C° 0 mm 3 mps 740 mmHg 96%
    06:00 +14°C° 0 mm 3 mps 741 mmHg 94%
    07:00 +16°C° 0 mm 3 mps 741 mmHg 93%
    08:00 +15°C° 0 mm 4 mps 741 mmHg 91%
    09:00 +17°C° 0.1 mm 4 mps 742 mmHg 88%
    10:00 +18°C° 0.1 mm 4 mps 742 mmHg 85%
    11:00 +20°C° 0.1 mm 4 mps 742 mmHg 82%
    12:00 +20°C° 0.7 mm 4 mps 742 mmHg 81%
    13:00 +21°C° 0.7 mm 4 mps 742 mmHg 80%
    14:00 +21°C° 0.7 mm 4 mps 743 mmHg 79%
    15:00 +21°C° 0.6 mm 4 mps 743 mmHg 80%
    16:00 +21°C° 0.6 mm 4 mps 743 mmHg 81%
    17:00 +21°C° 0.6 mm 4 mps 743 mmHg 82%
    18:00 +20°C° 0.1 mm 3 mps 743 mmHg 85%
    19:00 +18°C° 0.1 mm 3 mps 743 mmHg 88%
    20:00 +17°C° 0.1 mm 2 mps 743 mmHg 91%
    21:00 +16°C° 0 mm 2 mps 743 mmHg 92%
    22:00 +16°C° 0 mm 2 mps 744 mmHg 92%
    23:00 +15°C° 0 mm 2 mps 744 mmHg 93%
    Mostrar más